Wind_Speed
23 23 23 23 23 23 23 23 22 22 21 21 21 20 20 19 18 17 16 16 15 15 15 15 15 15 16 15 14 13 12 13 14 16 13 10 14 16 19 22 24 25 24 23 22 20 17 14 11 10 9 8 6 6 7 7 3 3 4 4 5 1 3 5 6 9 11 12 15 17 17 12 11 13 10 6 4 5 11 12 9 11 10 10 15 17 20 22
22 23 23 23 24 24 23 23 23 22 22 21 21 20 20 19 19 18 17 17 16 16 15 15 15 15 15 15 14 13 12 12 12 14 12 11 13 13 17 22 24 25 25 24 22 20 17 13 11 11 11 10 8 7 8 6 3 2 3 3 2 1 3 6 6 11 14 12 12 15 15 10 8 10 10 7 7 8 10 11 11 12 14 16 19 19 19 20
21 22 22 23 23 23 24 23 23 23 22 22 21 21 20 20 20 19 18 18 17 17 16 15 15 15 16 15 15 13 12 12 11 11 10 11 11 9 13 19 22 23 23 22 20 19 15 10 11 12 12 11 10 10 10 7 5 4 3 4 3 2 3 8 8 11 13 12 12 15 15 10 7 8 9 8 9 9 7 7 10 13 16 20 21 20 19 19
20 20 21 22 22 23 23 23 23 23 23 22 22 22 21 21 20 20 19 19 18 18 16 16 16 16 16 14 14 13 13 12 9 9 9 9 9 8 10 15 18 20 21 22 21 19 16 15 15 14 14 13 11 13 13 9 7 6 5 6 5 4 6 9 8 6 9 13 14 15 15 11 8 8 10 10 11 9 3 3 3 10 16 20 20 20 19 18
18 19 20 20 21 21 22 22 23 23 23 23 22 22 22 21 21 21 20 20 20 19 17 16 16 17 16 14 14 13 14 12 5 4 5 5 6 9 11 13 16 18 20 23 23 22 21 20 19 17 17 15 13 16 16 12 8 10 10 9 6 7 8 6 3 4 7 14 15 12 13 12 8 8 10 10 10 7 3 3 2 6 12 17 18 19 20 18
19 18 19 19 20 20 20 21 21 22 22 22 22 22 22 22 22 22 21 21 21 21 19 17 17 18 17 15 14 13 13 9 3 2 2 3 3 6 11 14 17 19 22 24 25 24 24 23 22 21 19 16 15 16 15 14 11 13 12 8 6 7 7 4 4 6 10 13 14 12 13 11 8 9 9 10 12 12 7 3 4 7 8 13 16 18 20 19
20 19 19 19 19 19 19 20 20 21 21 21 21 21 22 22 22 22 22 22 22 22 21 19 19 18 18 17 14 14 12 8 7 7 5 4 4 6 9 14 18 21 24 25 26 26 26 26 25 22 20 18 18 16 14 14 15 17 14 9 6 6 6 5 5 6 10 12 12 13 12 11 10 9 9 13 14 15 12 5 4 8 7 10 15 18 19 19
21 20 20 20 20 20 19 19 19 20 20 20 20 20 21 21 22 22 22 22 22 23 22 20 20 19 19 18 16 15 11 6 8 9 6 7 8 9 11 16 20 23 25 25 25 26 26 27 26 23 22 20 19 16 14 14 19 22 18 13 10 9 7 6 4 6 12 14 13 14 13 11 9 6 10 17 16 16 14 9 8 8 7 8 13 18 20 20
21 21 21 21 21 20 20 20 19 19 19 19 19 19 20 20 21 21 22 22 23 24 23 22 22 21 21 20 18 14 8 6 7 6 6 7 9 10 13 16 20 23 25 25 25 26 28 28 26 24 23 19 18 18 15 16 21 23 20 17 18 16 11 8 8 10 15 18 16 14 14 12 8 6 13 18 17 17 16 12 10 9 7 8 12 16 20 21
22 21 21 21 21 21 21 20 20 20 19 19 19 19 19 19 19 20 21 21 23 25 24 23 23 24 22 21 20 11 4 7 9 8 9 9 9 10 12 15 19 22 25 26 27 28 29 27 23 22 21 19 19 19 17 18 22 22 22 21 21 21 17 11 10 13 16 18 17 15 13 13 11 12 16 17 17 17 16 15 13 10 7 7 12 16 19 22
22 22 22 22 22 22 21 21 20 20 20 19 19 19 20 20 19 19 19 20 22 24 24 23 24 25 23 24 22 11 7 9 12 13 13 10 10 10 11 11 15 21 25 27 29 28 27 23 20 20 20 20 20 19 19 20 23 23 23 24 24 24 21 18 16 16 17 19 18 15 13 14 16 17 16 16 17 16 16 15 12 10 8 8 13 16 19 22
23 23 22 22 22 22 22 22 21 21 20 20 19 20 20 20 20 19 18 18 21 23 23 23 25 25 25 25 16 6 9 12 13 17 15 10 11 11 9 6 11 19 24 27 28 27 25 23 23 25 23 21 20 18 19 21 24 25 23 25 27 24 23 24 22 18 19 23 21 16 16 17 19 19 17 17 17 17 16 14 11 11 9 8 14 17 20 22
23 23 23 23 23 23 23 23 22 21 20 20 19 20 20 20 21 20 19 18 19 21 21 23 24 24 26 19 6 9 11 12 13 18 15 11 12 11 9 7 7 15 22 25 26 26 24 24 27 29 24 23 24 22 21 21 22 23 21 22 22 20 22 24 27 23 20 26 25 20 20 21 21 18 17 18 19 20 19 16 15 14 10 9 15 19 20 23
24 24 24 23 23 23 24 24 23 22 21 21 20 20 20 20 21 20 20 20 19 19 19 22 22 24 24 9 9 12 15 17 18 18 14 12 12 10 12 11 7 13 21 24 25 25 25 25 27 29 27 26 26 24 24 24 23 22 22 22 20 21 19 17 29 32 25 26 26 24 23 23 22 19 18 19 21 23 23 21 19 16 10 10 16 20 21 22
23 24 24 24 24 23 24 24 24 23 22 22 22 21 21 22 22 20 21 21 20 19 19 21 21 24 21 5 9 16 20 22 19 14 14 12 11 10 12 12 8 10 20 24 25 26 26 27 27 28 29 29 25 25 27 27 26 24 23 23 22 22 16 12 25 32 30 28 26 26 23 22 23 21 20 22 25 25 25 23 21 18 11 8 15 21 21 22
24 24 24 24 24 24 25 25 25 23 22 23 23 23 23 24 23 21 21 21 21 20 20 21 20 22 19 7 11 18 20 19 14 14 18 16 11 10 10 10 7 8 17 25 26 26 29 31 29 28 29 30 29 29 29 27 28 26 24 24 24 22 16 12 19 26 31 31 28 27 23 22 25 23 23 25 27 27 26 25 22 18 12 8 12 20 23 23
25 25 24 24 24 24 25 26 26 24 23 24 25 23 25 26 24 23 22 22 22 21 21 22 20 22 19 10 11 13 13 15 14 16 20 19 14 11 12 13 11 10 15 24 27 28 33 34 31 31 31 31 32 30 27 27 30 29 26 26 24 20 16 16 16 21 31 34 31 31 27 25 25 24 25 27 28 28 27 26 23 19 14 8 10 18 24 24
28 27 26 26 25 24 25 26 26 24 23 24 26 25 25 27 26 25 25 25 24 22 22 22 21 22 16 10 11 11 12 15 16 17 19 20 17 16 19 17 14 14 15 22 28 31 34 36 33 31 33 34 33 32 30 30 33 30 27 26 24 21 19 20 18 15 25 34 33 34 31 26 25 25 26 28 30 31 29 27 23 20 17 10 9 15 21 24
30 29 27 27 26 25 26 26 26 24 23 24 26 27 27 27 27 27 27 27 26 24 22 21 22 21 15 10 8 10 16 18 18 19 20 20 18 20 24 20 17 18 19 21 27 32 34 36 35 34 36 37 37 37 35 33 32 29 27 26 25 23 21 19 18 15 20 32 35 35 34 29 27 28 28 30 32 31 28 27 24 21 18 12 10 13 17 21
32 30 29 28 27 26 27 27 26 25 25 25 26 27 28 28 28 30 31 30 28 26 25 24 24 22 17 13 9 10 16 17 18 18 17 18 18 20 26 24 21 23 24 23 25 30 33 35 39 40 39 38 38 37 36 33 32 29 28 28 27 27 23 19 18 17 20 31 37 37 36 31 29 30 30 31 33 32 30 28 26 23 20 15 12 11 13 16
32 32 31 29 27 26 27 28 27 26 26 26 26 26 27 29 30 32 34 31 27 28 28 26 27 26 18 13 14 15 15 17 19 17 16 15 16 21 27 29 29 29 27 23 22 24 29 37 43 43 39 36 36 35 34 33 33 31 31 31 31 30 27 24 21 19 21 31 38 38 38 32 30 32 32 33 33 31 31 30 28 25 21 17 14 12 11 11
31 31 31 30 28 26 26 28 28 27 27 27 27 26 27 28 28 30 34 32 26 24 26 25 26 27 19 12 16 20 21 22 21 17 17 17 18 21 25 29 33 32 28 22 23 25 30 39 43 40 38 35 33 31 31 33 33 34 34 34 34 32 28 27 27 22 21 34 39 38 39 34 31 33 34 34 32 29 28 29 30 26 22 18 15 14 12 12
30 30 30 29 27 25 25 27 27 27 27 28 27 26 26 26 27 29 33 36 29 23 23 25 25 27 22 15 16 26 29 27 23 21 20 21 22 21 23 29 31 31 30 28 29 31 32 37 38 37 35 34 34 30 28 28 32 37 38 36 37 35 30 30 27 17 17 31 40 39 39 36 32 34 37 34 29 27 27 30 30 26 23 18 16 14 13 14
29 30 30 29 26 23 23 25 26 26 27 28 26 25 25 23 26 29 30 36 36 26 20 21 25 28 23 16 17 29 30 26 26 26 24 25 25 23 24 27 29 30 32 31 32 34 35 31 28 31 34 34 34 33 30 28 31 37 41 41 41 39 35 33 27 18 17 23 35 39 35 32 35 37 39 37 30 29 29 30 29 26 23 20 17 16 16 16
29 29 30 29 27 23 20 22 24 25 27 27 25 24 23 21 24 29 29 31 36 31 22 22 26 26 22 21 22 25 27 27 28 28 28 27 27 27 27 25 28 32 33 32 32 34 37 31 23 23 29 32 34 35 35 32 32 35 40 45 45 41 38 34 30 24 18 16 26 34 25 21 37 39 35 38 37 34 33 32 32 27 24 23 21 20 20 19
28 29 29 29 29 24 18 19 22 23 25 25 25 23 21 22 22 25 26 26 33 32 23 19 20 20 22 26 26 24 28 28 26 29 31 28 27 27 27 28 29 32 31 30 31 34 36 33 28 23 23 28 32 36 36 35 34 37 39 42 43 43 41 37 34 27 17 15 20 35 26 15 32 40 33 35 37 36 37 35 33 30 28 28 25 22 22 22
28 28 28 28 29 27 19 17 19 22 23 23 24 22 20 21 20 22 20 16 21 22 15 12 10 12 17 22 26 30 27 19 21 33 36 30 30 29 29 31 30 30 28 26 30 36 33 30 32 31 27 28 33 36 35 36 37 40 38 34 35 40 41 39 37 33 28 24 20 33 37 22 28 40 36 34 34 35 40 38 34 33 31 30 28 24 24 24
28 28 28 26 27 29 22 17 18 20 22 22 22 22 20 19 17 15 10 4 7 8 6 7 7 10 14 17 25 31 26 16 17 28 34 32 32 33 33 34 31 28 27 29 34 35 29 29 32 34 34 34 36 35 29 33 39 41 36 31 32 33 35 38 35 35 35 28 22 28 34 21 19 37 39 35 37 38 40 40 37 36 34 30 29 27 26 25
28 28 29 26 25 27 23 21 22 18 19 21 21 21 20 18 15 10 2 2 7 7 7 7 8 11 13 16 22 27 28 23 12 12 27 37 34 35 36 34 31 28 27 31 35 31 27 28 27 28 36 38 37 32 28 31 35 36 34 31 32 31 31 32 30 35 36 23 22 29 30 18 12 31 44 39 41 41 39 40 39 37 36 33 32 30 29 28
30 29 30 27 24 24 21 22 25 19 17 20 20 20 19 17 15 9 5 7 9 6 5 8 10 12 13 16 20 23 28 29 17 9 25 39 35 36 38 32 28 29 30 31 34 33 29 26 24 26 31 35 35 33 31 32 28 28 32 31 31 32 34 33 32 36 28 15 24 33 33 27 12 22 46 46 41 40 39 40 40 39 38 36 35 33 32 31
32 30 30 29 26 23 18 18 24 22 17 18 19 19 18 16 16 10 6 12 13 8 6 6 10 14 15 15 17 20 25 29 23 16 26 39 37 38 39 34 31 31 32 34 35 34 31 28 28 29 28 28 31 34 33 33 29 28 31 32 29 29 31 33 33 30 15 9 25 34 32 33 21 22 40 44 40 38 38 39 38 39 40 39 38 36 34 33
33 31 29 29 28 25 20 17 20 22 19 18 17 18 17 15 18 19 12 8 8 8 10 8 8 13 15 18 19 18 21 26 27 22 27 37 41 43 43 41 40 35 33 39 39 34 35 36 32 30 30 29 30 33 33 34 34 35 37 35 26 17 16 18 17 14 9 11 26 32 27 29 32 35 38 38 39 39 36 36 33 33 38 40 40 38 37 36
34 32 28 28 28 24 21 18 19 20 20 18 16 18 20 13 13 23 24 16 6 5 11 12 13 14 12 19 24 22 21 23 26 27 25 30 40 47 45 44 44 38 33 38 39 33 31 35 36 33 34 34 33 36 37 36 38 40 43 40 26 11 6 9 7 4 7 13 23 32 26 19 29 40 39 35 38 38 36 35 33 31 33 37 38 38 38 38
34 32 29 27 26 24 21 19 19 20 18 18 17 19 23 18 10 12 16 21 18 13 15 19 18 17 14 16 20 24 27 24 25 31 27 27 38 47 47 46 45 41 35 31 33 35 27 25 35 39 38 37 37 39 37 35 38 41 42 42 36 23 9 4 4 3 5 7 14 24 19 11 18 29 32 31 33 36 36 36 34 32 33 35 36 37 38 38
34 31 28 26 25 26 23 19 20 20 18 19 20 23 28 26 15 7 5 10 16 23 32 32 26 24 22 19 16 19 27 26 23 30 33 32 37 44 47 49 48 44 37 28 28 35 32 30 35 37 37 40 40 38 35 32 35 38 40 42 42 38 26 12 7 11 10 5 9 19 17 15 19 23 26 28 30 33 34 35 37 35 34 36 37 38 38 37
34 30 26 24 24 25 22 18 19 20 19 20 23 30 36 31 20 13 11 11 11 18 28 28 23 21 22 22 19 15 21 28 28 29 35 37 38 40 41 44 46 46 44 37 30 29 29 34 38 32 31 38 40 38 36 34 33 33 40 46 43 41 40 27 14 15 14 6 9 18 19 20 23 23 25 26 28 32 32 34 40 37 34 36 36 36 37 37
35 30 24 23 24 23 21 19 18 19 21 22 27 34 36 33 28 22 17 16 13 13 18 21 16 11 12 14 16 11 9 21 31 34 36 36 37 41 42 42 42 44 47 43 35 29 25 29 36 34 32 36 39 38 38 36 34 32 38 45 40 33 36 33 15 9 11 5 6 17 20 20 20 20 25 27 26 29 31 34 39 38 35 34 33 32 34 36
37 31 24 23 22 21 22 21 19 20 21 25 32 34 32 33 33 29 23 20 19 18 19 20 18 14 11 11 14 12 5 10 19 26 32 35 35 38 41 42 42 42 43 43 40 34 27 25 28 30 31 32 33 35 38 38 37 36 35 37 35 25 25 29 18 7 9 6 4 13 20 22 24 22 24 29 29 27 28 32 37 38 36 34 31 30 31 33
36 30 22 21 20 20 22 22 20 21 23 28 33 33 30 31 31 29 29 28 27 26 23 18 15 15 15 16 20 21 17 16 14 14 19 26 31 36 37 38 42 42 39 42 44 39 32 25 24 26 26 26 32 37 41 43 40 38 37 34 36 33 29 32 27 15 9 6 5 8 10 18 29 28 22 25 30 28 27 30 35 36 35 33 31 30 31 34
33 28 18 16 21 22 22 22 21 22 25 29 30 28 27 26 25 25 27 28 31 30 25 20 18 21 24 24 25 26 24 22 21 20 19 17 21 29 34 34 38 41 38 39 45 45 40 31 27 28 27 28 35 40 43 47 44 42 44 39 38 36 30 30 34 30 17 5 3 4 5 16 32 32 25 23 25 27 27 28 32 35 34 32 30 29 30 34
29 25 14 12 21 23 20 20 22 23 25 25 25 25 24 22 21 21 18 19 25 29 28 26 24 26 29 30 30 31 31 29 25 24 24 20 16 17 22 28 34 38 38 39 43 45 45 41 34 32 33 35 38 38 40 47 46 44 48 47 43 38 27 18 19 29 29 17 9 7 6 17 30 33 32 28 24 25 26 26 29 34 35 34 33 30 28 31
26 24 12 12 23 23 20 22 25 25 25 23 22 22 22 20 18 15 12 12 17 21 24 26 27 25 24 29 32 28 29 34 31 26 26 22 18 14 15 19 25 32 39 44 47 45 42 43 41 38 40 39 36 33 33 39 45 46 46 46 46 43 36 22 9 13 24 25 22 15 12 21 30 29 29 30 28 26 26 27 28 30 34 36 35 31 29 31
26 22 9 12 22 21 20 23 26 28 29 28 25 24 23 21 17 15 15 18 20 20 20 20 22 21 18 24 29 23 22 30 31 28 29 27 25 24 24 22 21 24 29 34 40 45 44 42 40 38 41 43 42 39 34 33 41 49 49 47 45 47 47 38 24 17 18 22 23 15 12 25 32 28 27 30 29 26 24 28 30 28 30 35 35 32 29 31
26 19 5 8 13 12 13 14 16 22 26 26 25 25 23 21 18 17 18 21 20 18 17 16 16 17 17 20 24 21 20 22 21 21 25 27 29 29 27 28 25 19 17 13 15 29 41 46 39 26 22 28 33 34 34 35 38 45 52 52 49 50 51 45 38 29 21 23 24 16 11 21 29 30 32 33 32 29 25 26 31 32 32 34 34 32 29 31
25 20 8 8 9 7 7 5 6 12 16 17 20 21 21 22 22 18 16 16 15 13 15 17 16 17 20 20 21 21 20 21 21 20 23 28 31 30 27 27 26 21 17 13 9 16 28 41 45 31 14 13 18 21 29 37 40 41 46 51 52 52 50 46 40 31 23 24 28 23 16 20 30 35 36 36 37 39 35 29 29 30 32 34 34 32 31 31
24 21 15 12 9 8 10 8 7 9 9 11 15 17 19 22 24 24 22 20 19 17 19 21 19 20 24 25 25 25 25 25 24 23 27 33 34 33 31 26 23 22 21 17 15 16 17 26 43 48 40 34 32 33 34 33 34 39 41 44 49 53 52 49 42 35 31 26 31 37 27 20 28 34 33 31 31 35 37 34 31 26 25 32 33 32 33 31
21 19 19 18 11 6 10 11 9 9 8 10 13 13 14 17 18 23 27 25 23 23 24 25 23 23 27 29 29 28 29 30 29 26 29 35 38 39 37 29 23 24 25 19 16 17 18 20 29 43 52 54 48 43 40 33 27 33 39 41 44 49 52 52 47 44 37 25 29 44 38 26 26 25 24 25 23 25 28 30 31 26 22 25 27 28 34 32
19 18 16 17 15 11 9 9 10 12 12 13 14 13 14 14 13 14 19 21 23 22 20 21 22 20 24 28 29 29 31 32 34 33 31 34 39 43 44 38 29 26 26 23 18 15 19 22 23 23 34 52 55 46 43 41 33 29 36 43 45 48 52 54 51 49 44 35 36 44 42 38 35 25 21 25 26 28 30 27 28 27 24 25 27 30 34 33
18 18 15 13 16 18 17 15 16 17 16 16 16 15 15 14 12 12 14 17 21 19 13 14 17 17 19 24 26 28 30 31 35 36 33 32 34 36 40 41 36 26 20 19 15 10 14 19 18 15 21 37 53 52 46 46 43 34 34 41 44 47 52 54 51 48 46 46 45 42 39 42 40 30 25 27 27 27 29 27 25 25 25 28 33 35 35 33
16 17 16 15 17 17 17 17 18 18 17 16 15 15 14 13 14 14 14 14 17 19 13 12 14 16 19 22 24 28 29 29 34 38 37 36 34 31 33 36 36 29 18 12 8 6 10 13 11 12 17 23 43 57 53 48 47 42 36 38 39 42 47 49 50 49 47 47 44 40 40 42 40 35 32 30 26 23 21 22 21 19 21 27 33 33 32 31
16 16 15 17 19 17 16 16 17 18 18 15 13 13 13 13 14 15 16 14 14 16 15 13 14 16 20 23 23 26 28 26 30 35 36 37 38 33 32 34 33 30 23 14 7 5 9 14 13 16 18 16 29 46 55 53 49 44 41 40 38 39 44 47 47 47 46 44 42 41 42 39 36 38 39 37 35 32 29 28 23 17 16 24 30 29 28 28
15 15 14 17 20 18 16 17 17 17 17 14 12 13 15 15 12 11 15 16 13 14 17 17 15 14 18 22 20 19 22 25 29 34 35 37 40 38 36 35 31 27 22 17 12 8 11 19 18 20 21 14 15 28 52 54 38 36 46 46 37 35 40 44 45 46 43 40 39 40 41 37 32 34 41 44 41 39 37 37 33 26 20 20 23 22 21 21
Wind_Direction
282 282 281 281 281 281 281 282 283 283 284 286 287 288 289 291 293 295 297 297 298 299 299 299 299 297 295 294 293 290 285 277 272 265 256 254 252 234 217 209 203 204 204 206 215 221 225 226 215 203 208 215 220 231 206 171 162 234 279 289 273 306 86 95 124 153 159 155 157 178 198 197 181 183 192 190 188 196 173 160 158 164 166 185 190 179 168 166
285 283 281 280 280 279 279 279 279 279 280 281 282 283 284 285 287 289 291 292 293 293 295 296 298 298 296 297 297 295 292 284 274 265 258 255 253 236 219 209 203 204 204 208 214 220 225 226 218 206 205 207 202 201 190 165 157 209 287 264 212 91 124 101 123 157 164 174 179 191 203 214 217 196 196 209 197 197 193 181 182 179 168 178 188 181 173 173
293 289 286 283 281 280 279 278 277 277 277 278 279 280 280 281 282 284 285 287 288 288 290 292 294 294 295 299 300 300 295 288 283 271 257 253 250 231 219 213 205 203 203 204 206 213 214 207 211 207 202 206 198 190 187 175 185 215 261 225 166 159 151 99 116 158 170 184 188 191 199 208 210 206 221 221 196 202 222 217 203 191 181 180 187 184 177 176
299 296 293 290 287 283 281 280 278 277 275 275 275 276 277 277 279 279 281 282 283 284 285 287 289 289 291 297 300 302 299 294 291 276 259 248 236 203 203 213 206 200 200 196 194 199 191 185 198 202 203 206 193 197 200 175 172 202 185 167 162 171 157 113 104 139 175 189 183 183 192 199 204 220 236 217 197 205 244 302 210 197 196 188 187 186 181 178
304 300 298 295 292 289 286 283 281 278 276 274 273 273 273 274 275 276 278 278 279 280 279 282 284 284 287 291 296 299 301 302 302 283 259 229 211 188 185 198 200 197 197 193 191 192 188 188 194 196 203 203 195 203 197 167 174 201 169 151 163 181 182 155 120 114 166 191 188 192 200 196 207 225 234 230 229 241 294 350 148 183 200 196 193 189 185 181
310 307 304 300 297 294 291 289 285 282 279 277 274 272 271 270 271 272 274 275 276 277 276 278 278 280 283 284 290 291 294 300 278 216 198 174 180 191 192 192 192 193 194 193 190 191 192 191 192 197 202 202 203 202 183 165 189 205 186 184 183 185 200 164 139 151 165 193 198 208 209 196 213 230 238 251 260 262 270 305 146 155 185 199 200 194 189 185
313 312 310 307 304 300 297 294 291 289 285 282 278 275 272 270 269 268 269 271 273 274 273 274 274 276 278 278 282 282 288 295 269 246 218 213 202 201 210 203 197 194 195 196 191 190 193 195 198 200 200 203 209 201 184 186 211 226 225 226 211 194 202 143 122 164 181 206 212 214 210 196 217 242 240 239 252 255 244 235 168 163 179 199 202 199 193 190
311 311 311 310 308 306 303 299 296 294 291 287 284 279 275 272 269 267 267 267 270 271 271 272 272 272 274 276 273 276 288 286 268 262 242 235 219 206 213 209 204 198 196 197 195 193 193 200 205 202 203 207 209 202 195 212 233 241 242 243 243 234 221 194 189 204 204 215 217 218 214 200 221 264 234 224 235 242 230 213 200 190 186 201 206 201 195 193
308 309 309 309 309 308 307 304 301 297 295 292 288 284 280 275 271 268 266 266 267 268 268 269 270 270 270 271 271 276 282 247 236 249 244 238 230 218 213 208 205 200 197 197 197 197 197 202 207 207 213 212 211 211 205 224 241 246 253 259 258 254 243 222 223 215 205 208 202 209 219 203 208 229 213 221 230 226 220 216 213 207 202 208 211 206 198 195
306 306 306 306 306 306 306 305 304 301 299 296 292 289 284 280 275 271 267 265 265 265 267 267 268 268 267 268 267 260 235 216 200 213 228 222 219 213 207 208 209 202 198 198 198 200 201 203 206 208 215 213 213 218 215 230 247 256 267 270 269 269 255 229 219 203 199 210 200 200 213 197 199 215 205 211 224 220 216 218 215 216 230 221 211 208 201 196
304 303 303 304 303 303 303 303 303 302 301 299 296 292 288 285 281 276 270 266 265 264 266 265 265 267 266 265 262 243 224 223 208 221 231 213 197 193 195 207 217 210 202 200 200 202 202 200 200 200 205 212 215 219 222 236 251 259 266 269 274 277 260 233 223 208 208 217 203 196 199 191 201 217 219 214 214 217 216 215 216 224 243 233 212 208 202 198
303 302 301 301 301 301 301 300 300 299 300 299 297 294 290 289 285 281 275 270 266 265 267 265 265 265 265 266 261 225 221 220 213 231 236 208 184 182 186 195 217 215 208 204 202 201 199 193 193 195 197 207 215 222 231 239 251 256 259 266 271 274 266 248 230 214 215 211 197 193 188 190 204 210 223 221 202 201 209 217 225 233 248 236 213 208 204 199
305 303 301 300 299 299 298 298 297 298 299 298 297 294 292 291 287 284 281 274 268 268 268 266 266 265 267 268 216 178 212 215 220 236 233 199 182 182 182 181 205 214 210 207 204 201 196 190 192 195 196 204 213 220 232 237 245 252 251 260 266 265 270 257 227 212 212 204 200 206 193 188 204 212 223 218 202 202 209 222 232 235 248 237 216 211 207 202
304 304 302 301 299 298 297 295 295 296 297 297 295 293 293 290 286 285 283 277 273 272 270 268 268 266 268 260 159 192 219 222 226 235 234 207 194 194 188 182 187 207 209 205 203 202 195 188 193 198 200 206 213 217 230 237 239 248 251 253 259 259 268 254 224 217 213 206 207 215 205 193 201 212 222 217 214 221 221 224 231 233 244 242 221 212 209 207
301 301 302 301 300 299 296 294 293 293 296 297 294 293 292 287 285 285 282 280 278 275 271 269 269 270 272 244 182 215 221 225 232 238 247 239 219 209 193 181 172 198 208 202 199 201 192 188 197 206 205 207 215 223 232 239 238 244 254 252 248 250 262 247 223 219 214 211 211 214 209 199 202 208 215 216 217 226 228 226 230 232 236 247 226 212 210 210
298 298 298 298 298 298 296 294 292 292 295 294 292 293 290 285 284 284 283 283 279 275 272 270 270 273 276 256 218 229 229 234 240 232 237 247 242 225 206 193 192 213 211 200 195 197 193 194 205 214 211 209 215 223 234 244 241 238 246 251 242 239 255 249 220 213 211 209 207 215 212 195 200 211 213 216 216 218 225 227 231 233 230 251 235 213 210 208
297 296 295 295 295 295 294 293 292 292 294 291 289 289 287 285 285 285 284 280 277 275 273 272 271 271 275 267 242 235 232 232 227 220 225 236 241 235 231 216 214 236 219 199 193 194 196 201 209 214 212 211 212 218 233 242 237 232 233 241 238 235 255 258 229 208 211 212 206 211 215 199 199 211 211 213 216 215 221 227 232 234 231 252 244 215 210 209
297 295 294 293 293 293 292 291 291 292 292 290 287 285 284 284 284 283 281 277 275 273 271 271 270 270 271 265 251 230 218 219 214 209 212 223 228 225 229 220 213 233 228 205 197 194 197 202 208 213 213 212 210 214 227 230 227 225 224 229 232 235 252 257 244 220 217 219 210 206 208 204 201 207 210 211 214 217 224 231 235 236 234 249 249 220 213 213
298 296 294 293 291 291 291 290 290 291 289 288 286 285 282 279 279 278 275 272 271 269 268 268 265 262 259 260 264 233 221 220 212 207 203 209 213 210 217 214 211 228 230 213 203 197 198 202 206 212 213 212 209 212 220 224 225 224 223 230 235 239 248 245 236 242 236 220 211 208 205 200 200 203 207 208 211 218 226 230 233 235 236 246 253 228 218 219
296 296 295 294 292 290 289 289 290 290 288 285 283 284 283 282 282 277 272 270 270 270 266 265 268 265 260 255 247 226 221 219 213 206 198 203 206 203 207 202 202 222 227 215 207 201 201 205 209 211 211 210 209 212 218 223 227 227 230 236 241 247 246 224 221 255 257 220 208 211 206 198 200 202 204 206 208 215 222 225 227 232 236 245 258 237 220 221
295 294 293 293 293 291 288 286 288 289 288 286 284 284 285 287 286 282 279 273 267 268 267 267 270 268 263 244 222 212 209 212 212 197 185 196 203 201 200 197 198 213 219 211 207 204 206 212 213 210 210 209 211 215 220 223 224 227 235 240 245 251 241 224 238 274 264 224 208 207 204 198 200 202 204 206 207 213 220 224 226 232 238 245 260 251 227 219
297 295 293 291 292 291 287 285 285 287 288 287 288 290 291 292 293 292 289 280 263 260 266 263 264 268 267 245 214 206 208 216 215 195 182 189 202 205 199 197 201 207 209 206 209 211 215 221 217 211 211 210 211 215 220 225 224 225 233 242 247 247 241 242 253 267 249 218 206 202 203 202 199 200 204 207 211 219 225 229 231 233 235 243 259 258 239 227
299 298 296 293 292 290 287 283 281 284 285 285 288 293 294 296 296 293 291 287 275 264 265 260 260 263 260 251 213 205 218 225 215 200 193 196 203 209 203 198 198 202 207 207 211 214 220 225 219 214 214 213 213 212 215 224 227 225 230 240 246 239 244 257 248 249 251 221 210 205 203 203 199 198 204 209 217 223 226 230 232 234 238 251 266 260 245 234
301 299 297 296 295 292 288 282 279 280 280 282 286 289 292 295 294 289 289 291 284 273 269 266 261 256 252 252 222 211 225 233 220 210 206 202 203 208 208 204 200 202 210 215 217 220 224 227 221 217 218 217 217 213 209 218 226 227 228 234 241 238 244 256 247 256 276 239 216 205 199 200 196 194 201 207 214 221 223 223 223 229 239 254 262 251 244 241
301 300 298 296 295 294 290 282 278 276 275 278 280 283 288 290 291 292 296 298 289 279 279 273 261 255 246 236 226 219 223 230 225 216 212 209 207 211 210 208 208 207 210 215 219 227 231 228 222 220 222 220 222 219 211 213 224 230 228 229 235 239 244 252 255 267 279 256 220 199 192 199 196 197 201 202 205 213 218 218 218 226 233 239 245 241 240 242
302 301 298 297 295 293 292 284 277 273 272 273 274 278 284 285 287 292 299 304 294 288 290 279 260 250 238 228 227 217 215 230 230 215 214 213 209 213 211 206 212 213 210 211 218 231 235 228 221 220 225 224 223 224 216 212 224 232 227 225 230 238 246 250 254 262 267 272 234 200 197 205 195 199 204 201 204 209 213 216 220 227 230 231 236 238 238 238
305 303 300 300 297 294 292 286 276 269 268 268 270 273 275 278 282 288 298 308 300 296 290 271 251 238 230 222 222 213 213 230 221 210 215 214 207 209 211 210 213 214 211 209 219 230 231 225 221 219 227 230 222 223 219 211 223 232 226 225 232 238 245 249 252 258 258 266 252 206 204 210 198 201 205 205 207 206 208 214 222 228 230 230 233 235 238 239
308 307 303 304 302 298 296 289 275 266 266 265 265 267 267 269 275 284 295 308 298 300 279 250 225 223 217 207 215 218 221 225 212 214 218 213 208 206 209 213 215 218 211 207 219 229 225 221 222 216 222 231 225 224 222 212 220 229 227 229 236 238 245 251 254 261 260 256 252 228 216 218 207 202 203 204 205 204 207 214 220 225 227 230 232 234 237 239
309 309 307 307 305 303 303 293 279 267 263 261 259 260 259 260 263 263 247 227 261 267 260 245 221 221 214 204 212 218 223 222 219 227 213 208 209 208 212 213 214 222 220 215 225 233 227 224 226 219 220 227 228 230 228 218 221 227 228 232 236 237 244 253 256 258 259 245 236 241 227 224 227 202 197 196 200 205 211 217 220 223 226 229 232 234 234 236
307 308 309 309 305 305 307 296 286 277 262 257 257 255 252 253 246 225 202 234 250 250 237 234 231 231 219 212 215 214 218 222 218 203 202 207 208 207 215 221 218 224 227 224 231 237 234 229 229 228 226 226 226 230 230 226 227 230 229 231 237 240 243 252 256 253 256 242 234 244 229 218 234 208 199 198 205 213 217 219 220 222 226 229 231 231 233 234
304 306 310 311 307 305 305 293 285 282 269 256 254 250 247 243 226 208 219 241 248 248 219 224 237 240 239 235 230 220 215 217 213 196 196 204 203 201 210 218 218 222 226 226 232 238 236 230 227 229 232 231 227 229 231 230 231 230 225 226 233 241 244 251 256 248 246 240 240 248 235 218 220 220 209 208 216 221 220 220 221 222 226 229 230 230 231 233
302 304 309 311 310 308 302 289 279 278 273 257 250 244 233 225 220 217 212 223 265 255 214 209 216 225 243 246 240 237 226 217 211 200 199 203 202 202 207 209 209 211 217 221 224 231 233 230 226 224 227 230 228 227 229 229 229 226 223 220 220 228 236 243 250 242 234 244 243 246 241 222 221 227 223 219 221 221 223 229 231 230 228 227 228 229 230 232
299 301 305 308 310 307 296 287 275 268 266 253 241 233 219 209 226 228 220 215 215 170 186 201 195 196 226 237 232 235 237 230 214 203 205 211 208 207 210 213 211 209 211 216 217 222 231 234 230 226 225 224 223 224 222 221 222 221 219 215 210 204 208 224 234 248 249 250 246 244 241 224 220 225 228 232 234 231 232 236 236 236 231 227 228 228 229 230
297 299 302 305 304 298 288 282 271 262 259 249 233 220 213 213 229 235 232 229 221 218 243 254 241 224 226 231 229 228 230 234 220 207 209 217 214 210 212 215 215 216 217 216 216 217 222 231 226 223 220 216 217 223 223 222 221 220 219 217 216 215 210 219 213 213 250 254 242 236 231 213 215 224 231 238 239 237 239 239 237 237 233 229 230 229 229 229
297 297 302 304 297 291 288 280 269 260 253 244 231 217 215 218 220 209 208 222 224 237 250 261 268 259 244 230 226 230 231 234 229 215 212 217 217 214 215 216 215 216 218 219 219 218 220 229 226 218 216 215 216 221 224 225 223 220 219 219 220 221 224 237 239 233 249 271 232 224 222 226 234 243 246 243 239 237 239 239 236 235 230 226 228 229 230 231
298 296 301 301 290 285 284 275 267 261 249 241 230 223 223 222 218 210 195 194 222 251 255 260 269 266 257 242 230 238 241 236 235 227 218 219 222 221 221 222 220 217 217 218 219 216 219 231 231 222 218 218 216 218 220 222 221 217 215 217 220 223 226 232 244 247 250 262 237 230 230 233 238 246 247 244 245 243 239 237 234 232 227 223 224 228 230 231
301 298 297 293 282 278 277 269 263 257 246 238 231 230 232 230 223 218 211 209 230 272 285 282 275 265 271 257 231 223 238 238 235 231 226 224 226 228 225 225 227 223 220 221 223 223 223 235 238 230 226 221 215 218 223 224 226 220 213 215 218 221 226 229 236 246 241 247 244 235 236 234 230 235 237 237 242 242 236 234 231 227 222 220 222 226 229 231
304 302 299 292 281 272 269 262 256 252 243 238 237 236 238 236 233 229 225 226 238 262 286 291 288 282 282 279 254 235 249 264 237 229 234 233 230 233 230 225 227 228 227 224 225 228 231 241 244 235 233 228 217 220 226 226 229 228 223 217 212 210 214 217 220 222 220 232 249 231 234 237 231 228 232 232 232 232 230 229 227 223 219 219 222 223 225 229
307 305 303 293 278 262 255 251 247 246 240 237 239 241 241 242 244 240 236 236 242 257 277 283 281 279 273 276 278 269 275 288 268 251 257 245 235 238 234 227 226 227 229 227 225 227 229 237 245 237 234 231 222 222 223 222 224 227 229 222 215 218 218 214 217 218 208 215 237 228 226 236 238 236 234 233 228 225 227 227 226 224 222 222 224 224 225 227
308 306 305 287 269 255 246 242 239 237 236 239 243 245 246 248 249 248 246 244 244 250 263 266 264 272 274 276 279 277 281 288 280 275 277 258 243 243 238 232 230 227 227 228 228 229 227 231 244 237 231 231 226 222 220 219 218 218 221 219 214 219 222 219 222 222 217 202 184 210 228 235 239 239 237 238 235 233 235 238 236 231 226 225 227 228 226 225
307 305 308 280 263 252 238 231 226 225 230 241 248 250 253 258 259 259 258 251 246 246 252 263 271 275 280 282 279 278 282 285 281 278 274 257 242 246 235 228 231 231 228 223 223 226 225 228 237 236 231 232 230 228 224 221 219 216 217 219 218 217 212 211 221 221 221 223 208 204 245 243 238 238 237 238 243 243 243 248 247 238 230 228 229 231 229 225
307 304 303 263 256 251 240 229 220 219 225 232 240 247 252 257 260 266 270 261 256 252 252 264 273 276 282 281 277 279 280 277 275 273 271 258 235 241 253 238 226 225 226 224 223 227 229 228 231 233 234 234 232 231 230 226 225 222 219 220 222 222 218 212 213 214 217 225 225 224 247 247 239 236 232 233 240 244 242 243 243 236 232 233 232 229 228 226
311 310 299 252 258 255 245 238 225 221 225 227 230 238 245 252 259 269 274 269 265 260 258 266 269 268 274 269 263 270 275 272 270 263 263 264 249 250 267 261 233 217 223 230 228 225 224 224 225 229 235 237 235 232 232 231 227 222 220 220 221 222 224 224 226 226 224 224 220 218 243 244 239 235 228 228 235 242 244 239 235 236 241 241 236 229 226 227
317 317 286 230 263 261 241 244 240 231 231 234 237 239 240 245 255 263 265 262 260 257 259 266 263 259 272 271 261 269 278 272 267 255 251 255 249 246 254 253 245 234 224 228 224 216 218 220 218 219 231 235 237 237 235 232 227 220 218 219 219 220 223 227 229 230 236 235 222 214 238 242 240 241 237 232 234 242 252 244 231 237 247 243 235 230 227 227
320 320 288 241 266 259 213 219 258 244 238 246 250 248 245 243 241 246 258 261 257 257 263 268 268 268 278 280 268 270 276 267 268 267 254 250 247 243 247 250 253 254 237 222 208 207 220 222 214 208 208 214 221 229 229 227 226 223 220 217 218 219 220 223 225 225 231 237 231 230 242 242 240 245 245 243 242 245 253 252 240 244 250 242 234 230 227 227
320 321 310 290 277 239 206 203 236 241 241 263 264 256 256 252 242 239 248 257 256 258 267 270 274 276 277 279 276 276 271 259 266 280 272 264 259 252 253 257 263 262 246 233 224 217 233 235 220 215 217 219 222 226 226 227 224 222 221 218 215 217 220 221 221 223 226 231 236 239 244 244 240 241 240 242 248 250 252 253 251 252 246 235 235 235 230 228
313 318 319 317 309 246 207 208 232 248 265 298 292 277 274 271 260 248 246 253 257 263 271 273 276 282 279 279 281 281 276 265 262 273 276 271 266 261 260 263 272 269 255 251 252 244 251 251 233 227 225 224 228 231 229 230 228 222 222 220 215 215 218 220 220 225 226 224 234 240 241 243 242 235 225 230 246 254 253 252 250 247 235 227 234 239 234 230
305 309 316 315 305 294 270 253 270 279 287 307 305 295 292 288 288 277 259 255 257 263 279 283 282 287 282 278 281 283 283 279 270 269 274 274 271 268 264 262 267 270 265 265 268 269 270 256 245 253 243 228 227 231 231 231 231 227 221 220 218 214 215 219 222 226 228 227 235 239 240 243 244 238 232 239 246 246 247 250 249 246 239 227 226 232 232 230
302 303 308 303 293 299 304 301 305 301 295 304 305 296 295 292 292 290 278 271 264 260 277 292 288 292 288 280 281 285 288 289 283 276 276 281 284 281 277 270 264 262 269 272 264 275 294 267 250 282 277 238 225 226 229 231 230 226 222 221 218 215 214 218 223 226 229 233 239 243 243 246 245 241 241 246 246 244 245 248 250 252 249 234 225 225 228 229
303 301 303 300 292 298 306 306 312 308 294 298 304 299 298 295 287 279 272 277 277 266 267 283 285 293 296 288 284 287 290 294 291 284 282 286 288 289 289 281 270 264 274 291 274 263 301 292 281 305 298 253 227 222 223 230 231 226 225 226 221 217 215 216 220 224 228 233 238 241 244 246 245 243 244 245 245 245 247 251 256 261 254 236 225 223 224 224
298 296 299 299 295 299 308 308 309 305 296 298 303 301 297 288 285 282 270 267 273 265 261 273 281 283 286 288 290 290 290 292 290 284 282 282 281 283 286 284 281 280 284 304 305 267 304 312 315 335 326 274 233 222 219 224 230 227 224 225 221 217 218 219 220 221 223 228 233 237 241 245 244 243 244 245 247 248 250 254 261 267 251 227 219 219 221 219
292 291 294 295 294 298 306 305 301 301 302 306 303 298 296 290 288 290 282 273 262 247 243 256 275 281 276 278 289 300 296 290 286 281 278 275 273 275 278 278 283 286 289 311 313 281 318 320 315 336 330 282 244 231 221 217 224 229 225 222 217 214 220 224 224 221 220 224 229 234 240 244 246 243 241 243 247 251 252 253 258 262 250 226 215 213 213 215
Height
3164 3163 3162 3162 3161 3161 3160 3160 3159 3159 3158 3158 3158 3157 3157 3156 3156 3155 3155 3154 3153 3153 3152 3151 3150 3150 3149 3149 3149 3149 3149 3149 3148 3147 3148 3148 3148 3148 3149 3151 3154 3156 3159 3161 3163 3165 3167 3170 3171 3172 3173 3173 3174 3174 3174 3174 3173 3174 3174 3173 3171 3171 3172 3172 3173 3173 3174 3174 3173 3173 3172 3173 3174 3175 3176 3176 3176 3177 3177 3178 3179 3180 3180 3182 3183 3183 3183 3183
3162 3161 3160 3160 3159 3158 3158 3157 3157 3157 3156 3156 3156 3155 3155 3155 3154 3153 3153 3152 3152 3151 3151 3150 3149 3148 3148 3148 3148 3148 3148 3147 3146 3146 3146 3146 3146 3146 3148 3149 3151 3154 3157 3159 3162 3165 3166 3169 3170 3171 3172 3172 3173 3173 3174 3173 3173 3173 3173 3173 3171 3171 3172 3172 3173 3172 3173 3174 3173 3172 3172 3172 3173 3174 3175 3176 3176 3176 3177 3177 3179 3179 3179 3181 3182 3183 3183 3184
3160 3159 3158 3158 3157 3156 3156 3155 3155 3155 3154 3154 3154 3153 3153 3153 3152 3152 3151 3151 3150 3150 3149 3149 3148 3147 3146 3146 3146 3146 3146 3145 3145 3145 3144 3144 3144 3145 3147 3148 3150 3153 3156 3158 3161 3163 3166 3168 3169 3170 3171 3172 3172 3172 3173 3173 3172 3173 3173 3173 3172 3172 3172 3172 3173 3172 3173 3174 3173 3172 3172 3172 3172 3174 3175 3176 3176 3176 3176 3176 3178 3179 3178 3179 3181 3182 3183 3184
3158 3157 3156 3156 3155 3154 3154 3153 3153 3152 3152 3152 3151 3151 3151 3150 3150 3150 3149 3149 3148 3148 3148 3147 3147 3146 3145 3145 3145 3145 3144 3144 3144 3143 3143 3143 3143 3144 3145 3147 3149 3152 3154 3156 3159 3161 3163 3165 3166 3168 3169 3170 3171 3171 3171 3171 3171 3172 3172 3171 3171 3172 3172 3171 3172 3171 3172 3173 3172 3172 3172 3172 3173 3174 3174 3176 3176 3176 3176 3176 3177 3178 3178 3179 3180 3182 3183 3184
3157 3155 3155 3154 3153 3152 3152 3151 3150 3150 3150 3149 3149 3149 3148 3148 3148 3148 3147 3147 3146 3146 3146 3146 3145 3144 3144 3144 3144 3144 3143 3143 3143 3143 3142 3142 3142 3143 3144 3146 3148 3151 3153 3154 3156 3158 3160 3162 3164 3165 3167 3168 3169 3169 3169 3170 3170 3170 3170 3170 3171 3171 3171 3170 3170 3170 3171 3172 3172 3171 3171 3172 3172 3172 3174 3175 3175 3175 3176 3177 3177 3178 3178 3179 3180 3181 3183 3184
3155 3154 3153 3152 3151 3150 3150 3149 3148 3148 3147 3147 3147 3146 3146 3146 3146 3145 3145 3145 3144 3144 3143 3144 3143 3142 3142 3143 3143 3142 3142 3142 3142 3143 3142 3142 3143 3143 3144 3145 3147 3149 3151 3152 3154 3156 3158 3160 3161 3163 3164 3166 3167 3167 3168 3168 3168 3168 3168 3169 3170 3170 3170 3169 3169 3170 3172 3172 3171 3171 3171 3172 3171 3170 3171 3173 3174 3174 3176 3177 3178 3178 3179 3180 3181 3182 3182 3183
3153 3152 3151 3150 3149 3148 3148 3147 3146 3146 3145 3145 3144 3144 3144 3144 3143 3143 3143 3142 3142 3141 3141 3142 3141 3140 3140 3141 3142 3141 3141 3141 3141 3142 3142 3142 3143 3144 3144 3145 3146 3147 3148 3150 3152 3154 3156 3157 3159 3161 3163 3165 3165 3166 3167 3167 3167 3166 3166 3168 3169 3170 3170 3169 3169 3170 3172 3172 3171 3172 3172 3172 3170 3169 3170 3171 3173 3175 3176 3178 3178 3179 3179 3180 3181 3182 3183 3184
3152 3150 3149 3148 3147 3147 3146 3145 3144 3144 3143 3143 3142 3142 3141 3141 3141 3141 3140 3140 3139 3139 3139 3139 3139 3139 3138 3138 3139 3139 3140 3140 3139 3140 3141 3141 3142 3143 3143 3144 3145 3146 3147 3149 3151 3153 3154 3155 3158 3160 3161 3163 3164 3165 3166 3166 3165 3165 3164 3166 3169 3169 3170 3170 3169 3169 3172 3172 3171 3171 3172 3172 3171 3170 3170 3170 3173 3174 3176 3178 3178 3179 3179 3180 3181 3182 3183 3184
3150 3149 3148 3147 3146 3145 3144 3143 3143 3142 3141 3140 3140 3139 3139 3139 3138 3138 3138 3138 3137 3136 3137 3137 3137 3136 3136 3136 3137 3138 3138 3138 3138 3138 3138 3139 3140 3141 3142 3143 3143 3144 3145 3147 3149 3151 3152 3153 3156 3159 3160 3163 3164 3164 3165 3165 3163 3163 3164 3166 3168 3169 3169 3169 3168 3167 3169 3170 3170 3171 3171 3172 3172 3171 3171 3171 3173 3174 3175 3177 3178 3178 3179 3180 3180 3181 3183 3184
3148 3147 3146 3145 3144 3143 3142 3142 3141 3140 3139 3138 3138 3137 3136 3136 3136 3136 3135 3135 3134 3134 3134 3135 3134 3134 3134 3134 3135 3136 3136 3136 3136 3136 3137 3137 3138 3139 3140 3140 3141 3142 3143 3145 3147 3148 3150 3153 3156 3159 3160 3162 3162 3162 3163 3162 3162 3164 3165 3166 3166 3167 3168 3169 3167 3167 3168 3167 3168 3169 3169 3171 3171 3171 3172 3172 3173 3174 3175 3176 3177 3178 3178 3179 3180 3181 3182 3184
3147 3146 3145 3144 3143 3142 3141 3140 3139 3138 3137 3137 3136 3135 3134 3133 3133 3133 3133 3133 3132 3131 3132 3132 3132 3131 3132 3132 3133 3134 3134 3134 3135 3135 3135 3136 3136 3137 3137 3139 3140 3141 3142 3143 3145 3146 3149 3153 3156 3158 3158 3158 3159 3160 3161 3161 3162 3164 3165 3165 3164 3165 3166 3167 3167 3168 3168 3167 3166 3168 3168 3169 3169 3169 3170 3171 3173 3174 3174 3175 3176 3177 3178 3179 3179 3180 3182 3183
3145 3144 3143 3142 3141 3140 3139 3138 3137 3136 3135 3135 3134 3133 3132 3131 3131 3130 3130 3130 3129 3129 3129 3130 3129 3129 3129 3129 3130 3132 3131 3131 3133 3133 3133 3134 3135 3135 3135 3137 3138 3140 3141 3142 3144 3146 3149 3152 3154 3154 3154 3156 3157 3158 3159 3160 3161 3162 3163 3163 3162 3162 3162 3163 3165 3166 3167 3166 3166 3166 3168 3167 3166 3167 3169 3169 3171 3173 3173 3174 3174 3176 3177 3178 3179 3180 3181 3182
3143 3142 3141 3140 3139 3138 3136 3135 3134 3134 3133 3133 3132 3131 3130 3129 3128 3127 3128 3128 3127 3126 3127 3127 3126 3126 3127 3126 3128 3129 3129 3130 3130 3129 3131 3132 3133 3133 3134 3135 3137 3138 3140 3142 3144 3146 3148 3150 3152 3152 3153 3154 3154 3155 3156 3157 3159 3159 3160 3160 3159 3160 3158 3159 3162 3164 3165 3165 3164 3164 3165 3166 3164 3165 3167 3167 3169 3171 3172 3172 3173 3175 3176 3177 3178 3179 3180 3181
3140 3139 3138 3137 3137 3136 3134 3133 3132 3131 3131 3130 3129 3129 3128 3127 3125 3125 3125 3124 3124 3124 3124 3124 3124 3124 3124 3125 3127 3127 3127 3127 3126 3126 3128 3130 3131 3132 3132 3134 3135 3137 3139 3141 3143 3145 3147 3149 3151 3152 3152 3152 3152 3154 3154 3154 3156 3156 3157 3156 3156 3157 3155 3156 3158 3160 3163 3163 3162 3161 3163 3164 3163 3163 3165 3166 3167 3168 3169 3171 3172 3174 3175 3175 3177 3178 3179 3180
3138 3136 3135 3134 3134 3133 3132 3130 3129 3129 3129 3128 3127 3126 3125 3123 3123 3123 3122 3122 3122 3122 3122 3121 3121 3121 3121 3124 3125 3124 3123 3123 3123 3125 3127 3127 3129 3130 3131 3132 3134 3136 3138 3139 3142 3144 3146 3148 3149 3149 3149 3151 3152 3152 3151 3152 3153 3154 3154 3153 3154 3154 3153 3153 3154 3156 3159 3161 3160 3160 3161 3163 3162 3162 3164 3165 3166 3167 3168 3169 3171 3173 3174 3174 3176 3177 3178 3179
3136 3134 3133 3132 3131 3130 3129 3127 3126 3126 3126 3125 3124 3124 3122 3120 3120 3120 3120 3119 3119 3119 3119 3119 3119 3119 3119 3121 3122 3121 3121 3122 3124 3126 3125 3125 3126 3129 3131 3131 3132 3135 3137 3138 3140 3142 3145 3146 3146 3146 3147 3149 3150 3150 3150 3150 3150 3151 3151 3150 3150 3151 3151 3152 3152 3153 3156 3158 3158 3158 3159 3160 3159 3160 3162 3163 3164 3165 3167 3168 3170 3171 3172 3173 3175 3176 3177 3177
3133 3132 3131 3130 3129 3128 3126 3125 3124 3124 3124 3122 3121 3121 3119 3117 3118 3118 3117 3117 3116 3116 3116 3116 3116 3116 3116 3118 3119 3120 3120 3121 3122 3123 3124 3124 3125 3127 3129 3129 3131 3134 3136 3137 3138 3139 3142 3142 3142 3143 3144 3145 3146 3148 3149 3146 3145 3147 3148 3148 3147 3148 3149 3150 3151 3152 3154 3155 3155 3155 3157 3157 3156 3157 3159 3160 3161 3163 3165 3166 3168 3170 3171 3172 3174 3175 3175 3176
3130 3129 3128 3127 3126 3125 3124 3122 3121 3121 3122 3120 3118 3117 3116 3115 3115 3114 3113 3113 3113 3113 3113 3113 3114 3114 3114 3115 3116 3117 3117 3117 3118 3120 3121 3122 3124 3126 3127 3128 3130 3133 3134 3135 3135 3136 3138 3139 3140 3140 3140 3141 3142 3144 3143 3141 3143 3145 3146 3146 3146 3147 3147 3148 3149 3152 3153 3153 3153 3154 3156 3156 3154 3155 3157 3158 3159 3161 3162 3164 3166 3168 3169 3171 3172 3173 3174 3174
3126 3125 3125 3125 3124 3123 3121 3120 3119 3119 3119 3117 3115 3114 3113 3112 3111 3110 3109 3109 3109 3110 3110 3110 3110 3111 3112 3112 3114 3114 3114 3115 3115 3116 3118 3121 3123 3124 3126 3127 3129 3131 3132 3132 3132 3134 3135 3136 3136 3135 3134 3136 3138 3139 3139 3140 3144 3145 3145 3146 3146 3146 3146 3146 3148 3150 3152 3151 3151 3151 3153 3154 3152 3152 3154 3156 3158 3160 3161 3163 3165 3166 3167 3169 3171 3172 3172 3173
3122 3122 3121 3121 3121 3120 3118 3117 3116 3116 3115 3114 3113 3111 3110 3109 3108 3107 3105 3105 3106 3106 3106 3106 3106 3107 3109 3111 3112 3112 3112 3113 3113 3114 3116 3119 3121 3122 3124 3125 3127 3128 3128 3129 3130 3132 3134 3133 3130 3128 3130 3134 3136 3138 3140 3142 3144 3144 3145 3145 3145 3145 3144 3144 3147 3149 3149 3149 3148 3148 3150 3151 3150 3150 3152 3154 3156 3158 3160 3161 3162 3164 3165 3167 3169 3170 3171 3172
3118 3118 3118 3118 3117 3117 3115 3114 3113 3113 3112 3111 3110 3110 3109 3107 3105 3103 3100 3102 3104 3103 3102 3104 3103 3102 3106 3110 3110 3109 3110 3110 3111 3112 3113 3116 3119 3119 3120 3122 3123 3124 3124 3127 3129 3130 3131 3127 3124 3127 3131 3134 3136 3139 3141 3142 3142 3143 3143 3142 3142 3143 3141 3141 3144 3148 3148 3146 3145 3147 3149 3150 3149 3149 3150 3152 3153 3154 3155 3157 3158 3160 3162 3164 3166 3168 3170 3170
3115 3114 3114 3114 3114 3114 3113 3111 3110 3110 3109 3108 3107 3108 3107 3105 3103 3101 3097 3095 3098 3101 3100 3100 3100 3098 3102 3106 3107 3107 3106 3105 3108 3109 3109 3112 3115 3115 3117 3118 3119 3120 3122 3125 3126 3127 3126 3121 3122 3128 3132 3134 3136 3138 3140 3140 3142 3142 3141 3141 3140 3139 3139 3139 3142 3147 3147 3144 3144 3145 3147 3147 3148 3148 3148 3149 3149 3150 3152 3153 3155 3157 3159 3161 3163 3166 3167 3168
3111 3110 3110 3109 3110 3111 3109 3108 3107 3107 3106 3105 3105 3106 3104 3103 3101 3099 3095 3090 3091 3095 3097 3097 3097 3096 3098 3102 3104 3102 3100 3101 3104 3106 3106 3107 3110 3112 3114 3115 3116 3118 3120 3121 3121 3122 3120 3117 3122 3129 3131 3133 3134 3136 3138 3139 3140 3139 3138 3139 3136 3135 3139 3138 3139 3144 3146 3144 3143 3143 3144 3145 3147 3148 3148 3147 3147 3149 3151 3152 3153 3155 3156 3158 3161 3163 3165 3166
3108 3107 3105 3105 3106 3107 3106 3105 3104 3104 3103 3102 3103 3103 3102 3102 3099 3095 3094 3090 3086 3088 3093 3094 3092 3091 3095 3098 3099 3097 3097 3099 3100 3102 3103 3103 3106 3109 3110 3112 3114 3115 3116 3118 3119 3119 3117 3118 3123 3128 3129 3131 3132 3133 3135 3136 3136 3136 3136 3136 3133 3133 3136 3137 3138 3141 3144 3144 3143 3142 3144 3145 3146 3146 3146 3146 3147 3148 3149 3151 3152 3153 3154 3156 3158 3160 3161 3163
3105 3103 3102 3101 3101 3103 3103 3102 3101 3101 3100 3100 3101 3100 3100 3100 3097 3093 3092 3090 3083 3082 3088 3089 3086 3087 3091 3092 3092 3093 3095 3096 3095 3098 3100 3100 3103 3105 3107 3110 3111 3111 3113 3116 3118 3117 3116 3119 3123 3125 3126 3128 3129 3130 3132 3133 3134 3134 3133 3132 3132 3132 3135 3136 3138 3141 3142 3142 3142 3143 3145 3144 3144 3144 3143 3145 3146 3146 3147 3148 3149 3150 3152 3154 3155 3157 3158 3160
3102 3100 3099 3097 3097 3099 3101 3099 3098 3098 3096 3098 3098 3098 3098 3097 3095 3094 3092 3090 3082 3079 3083 3082 3082 3083 3084 3086 3088 3090 3092 3090 3092 3096 3097 3098 3101 3102 3105 3106 3107 3108 3111 3115 3117 3114 3113 3118 3121 3122 3123 3125 3126 3126 3128 3131 3132 3129 3128 3131 3132 3132 3133 3134 3137 3141 3141 3140 3141 3141 3141 3141 3142 3141 3141 3142 3143 3144 3145 3146 3147 3148 3149 3150 3152 3154 3155 3157
3099 3098 3096 3095 3093 3094 3097 3097 3095 3094 3094 3095 3095 3096 3096 3094 3094 3094 3094 3092 3083 3077 3079 3078 3079 3079 3080 3082 3084 3086 3087 3086 3090 3092 3092 3095 3098 3100 3102 3103 3103 3106 3110 3115 3113 3107 3109 3115 3117 3119 3121 3121 3121 3121 3124 3128 3128 3123 3125 3132 3133 3132 3132 3133 3136 3139 3139 3140 3140 3139 3138 3137 3137 3137 3138 3139 3140 3141 3143 3144 3144 3145 3146 3147 3148 3151 3152 3154
3096 3094 3093 3093 3091 3089 3093 3094 3091 3090 3091 3092 3092 3093 3093 3092 3094 3093 3095 3094 3082 3076 3076 3076 3077 3077 3077 3079 3080 3081 3083 3085 3087 3087 3088 3093 3095 3097 3098 3099 3101 3103 3107 3109 3104 3101 3107 3111 3112 3115 3118 3117 3116 3118 3122 3125 3124 3121 3127 3132 3132 3132 3132 3132 3134 3135 3136 3139 3137 3136 3137 3134 3131 3133 3136 3137 3137 3138 3139 3140 3141 3141 3143 3144 3146 3147 3149 3151
3094 3092 3090 3091 3090 3087 3089 3089 3086 3088 3089 3088 3089 3090 3090 3092 3092 3093 3096 3092 3079 3074 3076 3076 3076 3076 3076 3077 3078 3080 3082 3083 3085 3085 3087 3090 3091 3093 3094 3096 3100 3102 3104 3105 3101 3101 3106 3107 3109 3113 3113 3112 3114 3118 3121 3123 3122 3122 3127 3130 3130 3131 3131 3131 3132 3132 3133 3133 3130 3132 3135 3133 3129 3129 3132 3133 3133 3134 3135 3136 3137 3138 3139 3141 3142 3144 3146 3148
3090 3089 3087 3087 3087 3086 3086 3084 3081 3084 3086 3085 3085 3087 3088 3089 3090 3092 3093 3085 3075 3073 3074 3075 3076 3075 3075 3076 3077 3078 3079 3082 3084 3084 3085 3086 3088 3091 3093 3096 3101 3101 3102 3103 3100 3100 3104 3107 3109 3110 3109 3110 3113 3117 3118 3120 3121 3123 3125 3128 3129 3129 3129 3129 3128 3129 3129 3124 3122 3126 3129 3130 3127 3125 3125 3126 3127 3129 3131 3132 3134 3135 3136 3137 3138 3140 3142 3145
3087 3086 3085 3083 3083 3084 3085 3082 3078 3079 3082 3082 3082 3084 3085 3087 3088 3089 3083 3075 3072 3073 3073 3074 3075 3074 3074 3075 3075 3076 3077 3080 3082 3082 3083 3084 3086 3089 3090 3093 3096 3098 3100 3099 3097 3098 3101 3104 3105 3105 3107 3110 3112 3113 3115 3118 3120 3121 3122 3125 3127 3126 3126 3126 3124 3126 3123 3116 3116 3120 3124 3125 3121 3119 3121 3121 3122 3124 3126 3127 3130 3131 3132 3133 3134 3136 3138 3141
3083 3083 3083 3080 3078 3080 3081 3079 3076 3075 3076 3078 3080 3081 3082 3084 3082 3076 3072 3072 3073 3071 3070 3073 3073 3072 3073 3074 3073 3074 3075 3077 3078 3080 3080 3080 3081 3082 3082 3083 3086 3090 3091 3090 3092 3095 3096 3098 3100 3102 3104 3106 3108 3109 3111 3114 3115 3117 3118 3121 3122 3122 3124 3121 3118 3118 3114 3110 3113 3117 3119 3118 3113 3114 3119 3119 3120 3122 3123 3125 3126 3126 3127 3128 3130 3133 3135 3137
3079 3079 3080 3078 3075 3074 3075 3074 3072 3071 3072 3074 3076 3077 3080 3080 3072 3065 3067 3072 3071 3068 3068 3068 3067 3068 3070 3070 3071 3073 3073 3074 3076 3077 3078 3079 3078 3078 3079 3080 3081 3082 3082 3084 3089 3092 3093 3094 3096 3099 3099 3100 3102 3103 3104 3106 3108 3110 3112 3114 3115 3116 3118 3116 3114 3113 3111 3109 3111 3115 3115 3111 3107 3110 3114 3116 3117 3119 3121 3122 3122 3123 3124 3125 3126 3129 3131 3133
3075 3075 3076 3075 3071 3068 3069 3070 3068 3067 3069 3070 3072 3074 3075 3071 3064 3062 3066 3069 3069 3067 3066 3064 3063 3064 3065 3066 3068 3070 3071 3072 3074 3075 3075 3076 3076 3075 3077 3079 3080 3081 3082 3084 3086 3087 3088 3087 3087 3090 3091 3093 3095 3096 3099 3102 3105 3106 3108 3110 3109 3108 3110 3112 3112 3112 3110 3109 3110 3112 3110 3105 3104 3106 3109 3113 3115 3116 3118 3119 3120 3121 3122 3123 3124 3126 3128 3130
3071 3071 3072 3071 3067 3063 3064 3066 3064 3064 3065 3066 3068 3069 3065 3061 3061 3064 3065 3067 3067 3064 3059 3059 3061 3062 3062 3064 3066 3068 3069 3070 3071 3073 3072 3071 3071 3071 3072 3074 3076 3080 3081 3082 3082 3083 3083 3079 3079 3084 3086 3088 3091 3093 3098 3101 3101 3103 3106 3105 3103 3104 3108 3109 3108 3108 3108 3107 3106 3106 3103 3101 3103 3104 3106 3110 3111 3112 3114 3115 3116 3118 3120 3122 3123 3123 3125 3126
3065 3067 3069 3066 3062 3060 3060 3061 3061 3061 3061 3063 3064 3060 3056 3057 3061 3063 3063 3063 3063 3060 3056 3057 3059 3060 3060 3062 3064 3066 3068 3069 3069 3069 3068 3068 3067 3067 3069 3071 3073 3075 3076 3077 3078 3079 3079 3075 3076 3083 3084 3085 3088 3090 3094 3095 3095 3098 3099 3097 3098 3104 3107 3107 3105 3105 3106 3105 3100 3099 3098 3099 3101 3101 3103 3106 3107 3108 3110 3111 3113 3115 3117 3119 3119 3120 3121 3122
3059 3062 3064 3062 3058 3057 3057 3057 3058 3058 3057 3058 3057 3053 3052 3055 3058 3059 3060 3060 3060 3060 3059 3058 3058 3058 3058 3059 3061 3063 3064 3065 3066 3065 3064 3065 3063 3063 3066 3067 3070 3072 3073 3075 3076 3076 3077 3074 3074 3079 3080 3082 3086 3088 3090 3091 3092 3093 3092 3093 3099 3104 3104 3105 3105 3104 3104 3102 3097 3095 3095 3096 3097 3096 3099 3102 3103 3105 3106 3107 3109 3112 3114 3115 3115 3117 3118 3118
3052 3056 3059 3057 3055 3054 3053 3053 3053 3054 3054 3053 3050 3049 3050 3051 3053 3057 3059 3060 3059 3059 3059 3059 3057 3057 3058 3058 3057 3058 3060 3060 3061 3062 3061 3060 3057 3057 3061 3064 3067 3069 3071 3074 3075 3075 3076 3073 3073 3076 3076 3079 3084 3085 3085 3086 3089 3089 3090 3093 3097 3097 3096 3099 3099 3098 3099 3099 3095 3092 3092 3092 3092 3092 3095 3098 3099 3101 3103 3104 3106 3108 3110 3111 3112 3114 3115 3116
3047 3051 3054 3053 3051 3050 3049 3049 3049 3050 3049 3047 3045 3047 3048 3049 3052 3055 3057 3057 3057 3056 3056 3057 3057 3055 3055 3056 3054 3053 3056 3056 3056 3057 3058 3056 3054 3054 3057 3061 3063 3065 3069 3072 3071 3072 3075 3072 3070 3072 3074 3077 3078 3078 3077 3079 3083 3087 3089 3091 3091 3090 3090 3091 3091 3090 3093 3094 3092 3091 3089 3087 3086 3089 3093 3095 3096 3098 3100 3101 3102 3104 3106 3108 3109 3111 3112 3114
3043 3045 3050 3049 3046 3045 3045 3046 3046 3046 3044 3042 3043 3045 3046 3047 3050 3052 3054 3055 3055 3054 3053 3054 3055 3053 3051 3052 3052 3051 3052 3053 3053 3053 3053 3053 3052 3053 3056 3059 3060 3062 3065 3068 3067 3068 3071 3070 3067 3069 3072 3071 3069 3069 3070 3073 3077 3080 3081 3082 3084 3085 3086 3087 3086 3085 3088 3090 3090 3090 3086 3081 3082 3087 3091 3092 3094 3096 3097 3098 3099 3100 3102 3104 3106 3107 3109 3110
3040 3041 3046 3045 3040 3039 3043 3044 3043 3042 3040 3041 3043 3044 3044 3046 3047 3049 3051 3052 3053 3052 3051 3051 3052 3052 3050 3049 3049 3050 3049 3048 3050 3050 3049 3049 3050 3053 3057 3059 3060 3061 3061 3061 3062 3063 3066 3065 3064 3065 3065 3063 3062 3065 3068 3070 3072 3074 3074 3075 3078 3081 3082 3082 3081 3081 3084 3085 3084 3086 3081 3075 3078 3084 3087 3090 3092 3093 3095 3095 3096 3097 3099 3101 3102 3104 3106 3107
3037 3038 3042 3041 3034 3035 3039 3040 3040 3040 3039 3039 3040 3041 3043 3044 3045 3046 3048 3049 3049 3049 3049 3049 3049 3050 3050 3047 3045 3047 3046 3043 3044 3045 3044 3045 3048 3050 3052 3052 3053 3055 3056 3054 3054 3057 3060 3061 3059 3058 3059 3059 3061 3064 3066 3067 3070 3071 3071 3072 3076 3078 3078 3078 3078 3079 3082 3080 3080 3083 3077 3070 3075 3082 3085 3088 3090 3091 3093 3093 3094 3095 3096 3098 3099 3101 3103 3104
3034 3034 3037 3035 3031 3031 3034 3035 3037 3037 3036 3037 3038 3039 3040 3041 3043 3044 3045 3045 3045 3045 3045 3046 3046 3046 3046 3043 3041 3043 3042 3038 3039 3040 3040 3041 3043 3045 3044 3044 3044 3047 3048 3049 3050 3054 3056 3054 3052 3054 3055 3056 3058 3060 3062 3064 3066 3065 3065 3069 3072 3072 3073 3075 3076 3077 3078 3075 3077 3080 3071 3065 3073 3080 3083 3087 3087 3088 3090 3091 3092 3093 3094 3095 3097 3099 3101 3102
3032 3032 3033 3032 3029 3029 3030 3032 3033 3033 3033 3034 3034 3034 3035 3037 3039 3039 3039 3040 3040 3041 3041 3041 3041 3041 3039 3037 3038 3039 3039 3036 3034 3034 3035 3034 3034 3036 3037 3039 3040 3041 3042 3044 3045 3048 3048 3045 3046 3050 3052 3053 3053 3053 3054 3056 3058 3057 3058 3062 3064 3066 3070 3072 3073 3075 3073 3069 3073 3074 3064 3063 3072 3078 3081 3084 3084 3084 3087 3088 3090 3091 3091 3093 3094 3096 3099 3100
3030 3029 3029 3029 3028 3027 3028 3029 3029 3028 3029 3028 3028 3029 3031 3032 3034 3035 3035 3036 3037 3039 3038 3037 3037 3036 3034 3034 3035 3036 3036 3035 3032 3029 3030 3028 3027 3029 3032 3033 3034 3036 3038 3040 3041 3041 3039 3037 3039 3040 3041 3042 3041 3041 3042 3046 3051 3052 3053 3055 3058 3062 3065 3066 3069 3070 3066 3065 3069 3067 3062 3065 3072 3074 3078 3081 3080 3081 3084 3086 3088 3088 3088 3090 3091 3093 3096 3097
3030 3028 3025 3024 3024 3025 3026 3026 3026 3025 3026 3026 3025 3027 3029 3029 3031 3032 3032 3033 3035 3035 3034 3033 3034 3033 3031 3031 3032 3031 3032 3032 3030 3028 3027 3025 3024 3025 3027 3029 3030 3032 3034 3036 3038 3037 3035 3033 3032 3030 3029 3030 3032 3035 3039 3043 3045 3047 3049 3051 3053 3057 3060 3061 3063 3060 3059 3064 3066 3062 3063 3068 3070 3070 3074 3077 3077 3077 3080 3082 3085 3086 3085 3086 3088 3090 3092 3094
3030 3028 3025 3022 3021 3022 3023 3024 3024 3024 3025 3025 3024 3025 3026 3027 3028 3029 3030 3031 3031 3031 3030 3030 3031 3031 3029 3028 3028 3027 3027 3027 3026 3026 3024 3022 3021 3020 3022 3026 3029 3029 3030 3032 3034 3034 3031 3029 3028 3027 3025 3025 3029 3034 3039 3040 3041 3042 3045 3047 3049 3053 3055 3056 3054 3052 3058 3063 3059 3057 3064 3067 3067 3069 3072 3073 3075 3075 3076 3079 3081 3083 3084 3085 3087 3088 3090 3092
3028 3028 3027 3025 3022 3021 3022 3022 3023 3023 3023 3024 3024 3024 3025 3025 3026 3026 3027 3027 3027 3028 3028 3027 3029 3029 3027 3026 3025 3024 3023 3022 3020 3021 3021 3018 3017 3016 3015 3021 3027 3028 3028 3030 3031 3030 3027 3025 3026 3025 3023 3024 3027 3031 3034 3036 3037 3039 3041 3042 3044 3047 3049 3049 3049 3051 3056 3056 3052 3056 3062 3062 3064 3070 3071 3072 3074 3073 3074 3076 3078 3080 3082 3082 3083 3084 3086 3088
3027 3026 3026 3026 3023 3022 3022 3022 3022 3022 3022 3022 3022 3023 3023 3024 3024 3025 3025 3024 3024 3026 3026 3025 3026 3026 3024 3024 3023 3022 3022 3021 3017 3016 3018 3018 3017 3015 3013 3014 3020 3025 3027 3027 3028 3027 3025 3022 3023 3022 3019 3020 3023 3026 3029 3032 3033 3035 3037 3038 3040 3041 3043 3045 3046 3049 3051 3050 3051 3057 3059 3059 3063 3068 3069 3071 3072 3072 3073 3074 3074 3076 3078 3078 3079 3080 3082 3085
3025 3025 3025 3024 3022 3021 3022 3022 3021 3020 3020 3021 3021 3021 3021 3022 3022 3022 3023 3023 3022 3023 3024 3023 3022 3022 3021 3021 3021 3020 3021 3021 3017 3014 3016 3017 3016 3017 3015 3012 3013 3018 3023 3026 3026 3025 3023 3020 3019 3018 3016 3015 3017 3021 3024 3026 3028 3030 3033 3035 3036 3038 3039 3041 3044 3046 3047 3047 3050 3055 3055 3055 3060 3066 3067 3068 3069 3069 3070 3070 3071 3073 3073 3074 3076 3077 3079 3082
3024 3024 3023 3022 3020 3020 3020 3020 3020 3019 3018 3019 3019 3019 3019 3019 3020 3019 3019 3020 3021 3021 3021 3020 3019 3019 3018 3018 3019 3019 3018 3017 3015 3013 3014 3015 3014 3016 3015 3012 3012 3014 3017 3022 3024 3022 3021 3018 3017 3017 3014 3011 3014 3017 3019 3022 3025 3026 3027 3028 3030 3033 3035 3037 3039 3042 3044 3045 3048 3050 3049 3050 3057 3063 3064 3063 3064 3066 3067 3067 3069 3070 3070 3071 3073 3075 3077 3078
3022 3022 3022 3021 3018 3019 3019 3018 3018 3017 3017 3017 3018 3017 3017 3017 3018 3017 3016 3017 3018 3018 3018 3017 3017 3017 3016 3016 3017 3016 3014 3013 3012 3010 3011 3011 3012 3013 3013 3012 3014 3014 3015 3019 3021 3020 3019 3018 3017 3017 3015 3011 3011 3014 3016 3020 3022 3017 3015 3020 3026 3029 3032 3034 3036 3039 3041 3044 3045 3045 3045 3049 3055 3058 3058 3058 3060 3061 3063 3065 3066 3068 3070 3071 3072 3074 3075 3076